Location: Roland
(31.1349°N, 85.4372°W)
Time: 05:05:24
(UTC+00:00)

Courier 1B - Pass Details

Date: 25 April 2021
Orbit: 962 x 1209 km, 28.3° (Epoch: 07 May)

Event Time Altitude Azimuth Distance (km) Brightness Sun altitude
Rises 16:14:54 0° 248° (WSW) 3,907 10.5 63.7°
Reaches altitude 10° 16:17:46 10° 244° (WSW) 2,911 10.0 64.2°
Maximum altitude 16:24:41 57° 168° (SSE) 1,196 9.8 65.3°
Drops below altitude 10° 16:31:12 10° 91° (E) 2,751 10.3 66.3°
Sets 16:33:51 0° 87° (E) 3,676 10.7 66.7°
